#timestamp,LO_Frequency,Hit,StdDev 
1643511615.1,286046998.7,N
1643511635.8,286046996.5,N
1643511655.7,286046999.0,N
1643511675.5,286047000.9,N
1643511695.4,286047001.0,N
1643511715.2,286047000.3,N
1643511735.0,286047001.1,N
1643511735.9,286047001.1,N
1643511755.8,286047000.8,N
1643511775.6,286047002.4,N
1643511795.4,286047003.7,N
1643511815.3,286047003.8,N
1643511835.1,286047004.1,N
1643511855.9,286047003.6,N
1643511875.7,286047002.9,N
1643511895.5,286047003.0,N
1643511915.4,286047004.3,N
1643511935.2,286047004.0,N
1643511955.1,286047004.8,N
1643511956.0,286047004.8,N
1643511975.8,286047007.3,Y
1643511995.6,286047005.6,P
1643512015.5,286047003.8,N
1643512035.3,286047001.3,N
1643512055.2,286047002.3,N
1643512075.9,286046999.7,N
1643512095.7,286047000.2,N
1643512115.6,286047000.6,N
1643512135.4,286047002.4,N
1643512155.2,286047001.3,N
1643512175.1,286047000.7,N
1643512176.0,286047000.7,N
1643512195.8,286046998.3,N
1643512215.7,286047000.8,N
1643512235.5,286047000.5,N
1643512255.3,286047001.2,N
1643512275.2,286046998.4,N
1643512295.0,286046998.6,N
1643512295.9,286046998.6,N
1643512315.8,286047001.2,N
1643512335.6,286047000.3,N
1643512355.4,286047000.9,N
1643512375.3,286047001.2,N
1643512425.1,286047002.6,E
1643512435.1,286047000.9,N
1643512436.0,286047000.9,P
1643512455.8,286047000.4,P
1643512475.6,286046998.9,Y
1643512495.5,286046996.9,P
1643512515.3,286046994.9,N
1643512535.1,286046995.1,N
1643512555.9,286046997.6,N
1643512575.7,286046995.4,N
1643512595.6,286046997.0,N
1643512615.4,286046998.4,N
1643512635.2,286046996.9,N
1643512655.1,286046996.2,N
1643512656.0,286046996.2,N
1643512675.8,286046996.4,N
1643512695.6,286046995.6,N
1643512715.5,286046993.3,Y
1643512735.3,286046996.6,P
1643512755.2,286046999.3,P
1643512775.9,286046998.6,N
1643512795.7,286046999.0,N
1643512815.6,286046998.3,N
1643512835.4,286046998.3,N
1643512855.2,286047000.5,N
1643512875.1,286047000.8,N
1643512876.0,286047000.8,N
1643512895.8,286046999.0,N
1643512915.7,286046999.2,N
1643512935.5,286046996.9,N
1643512955.3,286046999.6,N
1643512975.2,286046996.6,N
1643512995.0,286046998.1,N
1643512995.9,286046998.1,N
1643513015.7,286047000.8,N
1643513035.6,286047000.3,N
1643513055.4,286047001.6,N
1643513075.3,286047000.7,N
1643513095.1,286047000.8,N
1643513096.0,286047000.8,N
1643513115.8,286046999.9,N
1643513135.7,286047002.1,N
1643513155.5,286046999.7,N
1643513175.3,286047000.2,N
1643513195.2,286047000.6,N
1643513215.0,286047000.3,N
1643513215.9,286047000.3,N
1643513235.8,286046999.9,N
1643513255.6,286046999.9,N
1643513275.4,286047000.4,N
1643513295.3,286047000.2,N
1643513315.1,286047003.6,N
1643513335.8,286047004.2,N
1643513355.7,286047003.3,N
1643513375.5,286047002.0,N
1643513395.4,286047000.0,N
1643513415.2,286046999.7,N
1643513435.0,286046999.8,N
1643513435.9,286046999.8,N
1643513455.8,286046999.8,N
1643513475.6,286047001.7,N
1643513495.4,286047002.2,N
1643513515.3,286047000.2,N
1643513535.1,286047002.3,N
1643513555.9,286047002.2,N
1643513575.7,286047001.5,N
1643513595.5,286047001.5,N
1643513615.4,286047002.2,N
1643513635.2,286047002.3,N
1643513655.0,286047002.0,N
1643513655.9,286047002.0,N
1643513675.8,286047002.6,N
1643513695.6,286047003.1,N
1643513715.5,286047003.3,N
1643513735.3,286047004.1,Y
1643513755.1,286047002.7,P
1643513775.9,286047000.3,N
1643513795.7,286046999.9,N
1643513815.5,286047000.4,N
1643513835.4,286047000.3,N
1643513855.2,286047003.4,Y
1643513875.1,286047002.2,P
1643513876.0,286047002.2,P
1643513895.8,286047000.7,N
1643513915.6,286046997.0,Y
1643513935.5,286046996.1,P
1643513955.3,286046995.4,N
1643513975.2,286046997.5,N
1643513995.9,286046999.6,N
1643514015.7,286046996.5,N
1643514035.6,286046995.0,N
1643514055.4,286046994.9,N
1643514075.3,286046996.8,N
1643514095.1,286046999.4,N
1643514096.0,286046999.4,N
1643514115.8,286046998.8,N
1643514135.7,286046999.4,N
1643514155.5,286046998.3,N
1643514175.3,286046997.0,N
1643514195.2,286046999.5,N
1643514215.0,286046996.7,N
1643514215.9,286046996.7,N
1643514235.8,286046996.1,N
1643514255.6,286046995.1,N
1643514275.4,286046995.0,N
1643514295.3,286046995.7,N
1643514315.1,286046996.7,N
1643514335.8,286046995.3,N
1643514355.7,286046997.4,N
1643514375.5,286046997.8,N
1643514395.4,286046995.4,N
1643514415.2,286046995.4,N
1643514435.0,286046997.9,N
1643514435.9,286046997.9,N
1643514455.8,286046995.6,N
1643514475.6,286046995.9,N
1643514495.4,286046995.1,Y
1643514515.3,286046999.2,P
1643514535.1,286047000.5,N
1643514555.9,286046998.1,N
1643514575.7,286046998.3,N
1643514595.5,286046998.8,N
1643514615.4,286046998.5,N
1643514635.2,286046999.4,N
1643514655.0,286047000.6,N
1643514656.0,286047000.6,N
1643514675.8,286046998.3,N
1643514695.6,286046998.6,N
1643514715.5,286046998.1,N
1643514735.3,286046998.8,N
1643514755.1,286046999.1,N
1643514775.9,286046996.6,Y
1643514795.7,286046998.8,P
1643514815.6,286046998.5,P
1643514835.4,286047001.4,P
1643514855.2,286047002.8,N
1643514875.1,286046999.7,N
1643514876.0,286046999.7,N
1643514895.8,286047004.4,Y
1643514915.6,286047001.6,P
1643514935.5,286047002.1,N
1643514955.3,286047002.7,N
1643514975.2,286047002.2,N
1643514995.9,286047002.8,N
1643515015.7,286047002.2,N
1643515035.6,286047003.8,Y
1643515055.4,286047002.7,P
1643515075.3,286046999.9,N
1643515095.1,286047002.6,N
1643515115.8,286047001.7,N
1643515135.7,286046999.7,N
1643515155.5,286047002.8,N
1643515175.4,286047002.7,N
1643515195.2,286047000.1,N
